Location: Lucerne Valley
(34.4439°N, 116.9669°E)
Time: 21:48:20
(UTC-07:00)

Vanguard 2 - All Passes

Search period start: 18 June 2018 00:00
Search period end: 28 June 2018 00:00
Orbit: 553 x 2939 km, 32.9° (Epoch: 18 June)

Date Brightness Start Highest point End Pass type
(mag) Time Alt. Az. Time Alt. Az. Time Alt. Az.
18 Jun - 12:11:36 10° SW 12:17:04 26° SSE 12:21:02 10° ESE visible
18 Jun - 14:20:30 10° WSW 14:25:18 60° S 14:29:13 10° E daylight
18 Jun - 16:29:22 10° W 16:33:18 65° S 16:37:34 10° ESE daylight
18 Jun - 18:37:39 10° W 18:41:21 28° SSW 18:46:11 10° SE daylight
19 Jun - 10:22:05 10° S 10:26:10 14° SSE 10:29:30 10° SE visible
19 Jun - 12:29:07 10° SW 12:35:09 36° SSE 12:39:23 10° E visible
19 Jun - 14:38:36 10° WSW 14:43:22 70° S 14:47:17 10° E daylight
19 Jun - 16:47:28 10° W 16:51:20 53° SSW 16:55:36 10° ESE daylight
19 Jun - 18:56:13 10° WSW 18:59:25 19° SSW 19:03:24 10° SSE daylight
20 Jun - 10:38:10 10° SSW 10:44:24 21° SSE 10:48:56 10° ESE visible
20 Jun - 12:46:55 10° WSW 12:53:15 47° SSE 12:57:34 10° E visible
20 Jun - 14:56:46 10° W 15:01:25 73° S 15:05:20 10° E daylight
20 Jun - 17:05:38 10° W 17:09:21 39° SSW 17:13:30 10° SE daylight
20 Jun - 19:15:31 10° SW 19:17:30 12° SSW 19:19:44 10° S daylight
21 Jun - 08:51:36 10° SSE 08:52:50 10° SSE 08:54:00 10° SE night (unlit)
21 Jun - 10:55:09 10° SW 11:02:35 29° SSE 11:07:36 10° E visible
21 Jun - 13:04:57 10° WSW 13:11:19 59° S 13:15:39 10° E visible
21 Jun - 15:14:56 10° W 15:19:29 70° S 15:23:23 10° ESE daylight
21 Jun - 17:23:55 10° W 17:27:20 28° SSW 17:31:11 10° SE daylight
22 Jun - 09:04:57 10° S 09:11:08 16° SSE 09:15:58 10° ESE visible
22 Jun - 11:12:35 10° SW 11:20:45 38° SSE 11:25:59 10° E visible
22 Jun - 13:23:06 10° WSW 13:29:24 70° S 13:33:42 10° E visible
22 Jun - 15:33:06 10° W 15:37:31 59° SSW 15:41:24 10° ESE daylight
22 Jun - 17:42:27 10° WSW 17:45:19 19° SSW 17:48:28 10° SSE daylight
23 Jun - 09:21:02 10° SSW 09:29:24 23° SSE 09:35:20 10° ESE visible
23 Jun - 11:30:22 10° SW 11:38:53 49° SSE 11:44:10 10° E visible
23 Jun - 13:41:20 10° W 13:47:29 75° S 13:51:44 10° E daylight
23 Jun - 15:51:18 10° W 15:55:31 46° SSW 15:59:19 10° ESE daylight
23 Jun - 18:01:44 10° SW 18:03:17 12° SSW 18:04:54 10° S daylight
24 Jun - 07:33:30 10° SSE 07:37:15 12° SSE 07:40:35 10° SE night (unlit)
24 Jun - 09:37:53 10° SSW 09:47:38 31° SSE 09:54:04 10° E visible
24 Jun - 11:48:23 10° WSW 11:57:00 60° SSE 12:02:16 10° E visible
24 Jun - 13:59:35 10° W 14:05:33 75° S 14:09:45 10° E daylight
24 Jun - 16:09:35 10° W 16:13:28 33° SSW 16:17:02 10° SE daylight
25 Jun - 07:47:30 10° S 07:55:34 18° SSE 08:01:52 10° ESE night (unlit)
25 Jun - 09:55:14 10° SW 10:05:50 40° SSE 10:12:29 10° E visible
25 Jun - 12:06:34 10° WSW 12:15:07 70° S 12:20:19 10° E visible
25 Jun - 14:17:51 10° W 14:23:37 68° S 14:27:45 10° ESE daylight
25 Jun - 16:28:02 10° W 16:31:22 22° SSW 16:34:30 10° SSE daylight
26 Jun - 08:03:25 10° SSW 08:13:51 25° SSE 08:21:20 10° ESE visible
26 Jun - 10:12:56 10° SW 10:24:01 51° SSE 10:30:42 10° E visible
26 Jun - 12:24:52 10° W 12:33:14 77° S 12:38:21 10° E visible
26 Jun - 14:36:07 10° W 14:41:39 57° SSW 14:45:41 10° ESE daylight
26 Jun - 16:46:58 10° WSW 16:49:12 14° SSW 16:51:23 10° S daylight
27 Jun - 06:16:30 10° SSE 06:21:09 12° SE 06:25:21 10° SE visible
27 Jun - 08:20:06 10° SSW 08:32:05 33° SSE 08:40:10 10° E visible
27 Jun - 10:30:55 10° WSW 10:42:11 61° SSE 10:48:50 10° E visible
27 Jun - 12:43:12 10° W 12:51:22 79° S 12:56:22 10° E visible
27 Jun - 14:54:24 10° W 14:59:36 43° SSW 15:03:30 10° SE daylight
